Voltar ao catálogo

YAOGAN 15

AtivoMilitarSSO
NORAD 38354·PAYLOAD·🇨🇳 China

Lançado May 29, 2012 de Taiyuan Satellite Launch Center

Loading…

Próximas Passagens (próximas 24 horas)

TLE

AtualizadoSource: Space-Track

Época: Sep 14, 2026, 22:44 UTC

1 38354U 12029A   26257.94786538 -.00000090  00000-0 -10943-3 0  9990
2 38354 100.7255 104.3391 0025884  88.2374 272.1703 13.18386908687274

Acompanhe YAOGAN 15 em tempo real com AllMySat

Download on the App Store